Simultaneous Nadir Overpasses (SNOs) Predictions

Prediction of SNOs between METOP-B and TERRA Satellite Orbit:

Table of predicted SNOs for the next 14.0 days since TLE Epoch: 8/11/2018
Index Date (METOP-B) Time (METOP-B) Lat,Lon (METOP-B) SZA (METOP-B ) Date (TERRA) Time (TERRA) Lat,Lon (TERRA) SZA (TERRA ) Distance(km) Time Diff (sec)
1 08/11/2018 09:03:26 -81.36, -87.68 111.06 08/11/2018 09:04:19 -81.36, -87.69 111.04 0.39 53
2 08/11/2018 09:54:06 81.36, 80.04 69.00 08/11/2018 09:53:45 81.37, 80.11 69.00 1.36 21
3 08/14/2018 04:37:46 -81.36, -21.43 110.22 08/14/2018 04:38:34 -81.35, -21.42 110.20 0.54 48
4 08/14/2018 05:28:26 81.36, 146.24 69.83 08/14/2018 05:28:00 81.36, 146.36 69.83 2.08 26
5 08/17/2018 00:12:05 -81.36, 45.19 109.31 08/17/2018 00:12:48 -81.36, 45.26 109.28 1.32 43
6 08/17/2018 01:02:44 81.36,-147.19 70.74 08/17/2018 01:02:14 81.35,-147.37 70.70 3.20 30
7 08/19/2018 19:46:24 -81.36, 111.40 108.41 08/19/2018 19:47:02 -81.36, 111.57 108.37 2.81 38
8 08/19/2018 20:37:03 81.36, -80.63 71.68 08/19/2018 20:36:28 81.36, -80.69 71.66 1.05 35
9 08/22/2018 15:20:43 -81.36, 177.99 107.44 08/22/2018 15:21:17 -81.35, 177.89 107.44 1.72 34




NCC Satellite Simultaneous Nadir Overpasses (SNOs) Prediction Service
